Weather Roundup
Issued by NWS Chicago, IL

Home | Current Version | Previous Version | Text Only | Print | Product List | Glossary On
Versions: 1 2 3 4 5 6 7 8 9 10 11 12 13 14 15 16 17 18 19 20 21 22 23 24 25 26 27 28 29 30 31 32 33 34 35 36 37 38 39 40 41 42 43 44 45 46 47 48 49 50
000
NZUS59 KLOT 180108
HRRLOT

CHICAGO AREA WEATHER ROUNDUP
NATIONAL WEATHER SERVICE CHICAGO/ROMEOVILLE IL
700 PM CST FRI NOV 17 2017

NOTE: "FAIR" INDICATES FEW OR NO CLOUDS BELOW 12,000 FEET WITH NO
SIGNIFICANT WEATHER AND/OR OBSTRUCTIONS TO VISIBILITY.

* THESE STATIONS ARE NOT UNDER NWS QUALITY CONTROL. THEY ALSO MAY NOT
  REPORT WEATHER SUCH AS PRECIPITATION OR FOG.

ILZ005-006-012>014-019>023-180200-
NORTHEAST ILLINOIS

CITY           SKY/WX    TMP DP  RH WIND       PRES   REMARKS
OHARE          LGT RAIN  43  40  89 S15       29.64F FOG
MIDWAY         LGT RAIN  43  41  93 S12G22    29.65F FOG
AURORA         LGT RAIN  42  41  96 S14       29.64F FOG
LANSING*       DRIZZLE   42  41  96 S10       29.68F
JOLIET*        CLOUDY    43  42  96 S9        29.66F
WAUKEGAN       CLOUDY    42  40  92 S13       29.63F FOG
DUPAGE AIRPORT CLOUDY    42  42 100 S14       29.63F FOG
WHEELING       CLOUDY    43  42  97 S12       29.65F FOG
KANKAKEE*      RAIN      45  39  81 S8        29.70F
MORRIS*        CLOUDY    42  40  93 S9        29.65F FOG
LEWIS AIRPORT* LGT RAIN  42  41  98 S12       29.66F
NORTHERLY ISL    N/A     42  39  89 S9          N/A
$$

WIZ051-052-058>065-066-070>072-180200-
SOUTHEAST WISCONSIN

CITY           SKY/WX    TMP DP  RH WIND       PRES   REMARKS
MILWAUKEE      LGT RAIN  42  40  92 S12       29.63F FOG
KENOSHA*       CLOUDY    43  38  82 S14       29.63F HAZE
RACINE*        LGT RAIN  43  40  89 S12       29.64F FOG
BURLINGTON     MIX PCPN  42  42 100 S9        29.62F
WAUKESHA       LGT RAIN  37  37 100 S9        29.63F FOG
WEST BEND      HVY RAIN  37  37 100 S7        29.61F
$$

INZ001>003-010>013-019-020-180200-
NORTHWEST INDIANA

CITY           SKY/WX    TMP DP  RH WIND       PRES   REMARKS
GARY*          LGT RAIN  43  39  87 SE14      29.68F
MICHIGAN CITY* NOT AVBL
RENSSELAER*    NOT AVBL
VALPARAISO     TSTM      43  39  86 SE14      29.69F VSB 1
$$

LMZ740>746-180200-
SOUTHERN LAKE MICHIGAN

STATION/POSITION TIME  SKY/WX   TEMP WIND        PRES    VSBY
                                AIR  DIR/SP/G
                 (UTC)          (F)  (DEG/KT/KT) (MB)    (MI)
HARRISON CRIB    0030            44  190/ 25/ 26   N/A
BURNHAM HARBOR   0100            42  180/  8/ 14   N/A
CALUMET HARBOR   NOT AVBL
BURNS HARBOR     0040            42  170/ 12/ 20 1005.8F
MICHIGAN CITY    0040            43  150/ 19/ 24   N/A
$$

ABBREVIATIONS USED IN REMARKS
   TC - TEMPERATURE IN CELSIUS
  WCI - WIND CHILL INDEX
   HX - HEAT INDEX
  VSB - VISIBILITY
$$




USA.gov is the U.S. government's official web portal to all federal, state and local government web resources and services.